QPF
0.00 0.00 0.00 0.00 0.00 0.00 0.00 0.00 0.00 0.00 0.00 0.00 0.00 0.00 0.00 0.00 0.00 0.00 0.00 0.00 0.00 0.00 0.00 0.00 0.00 0.00 0.00 0.00 0.00 0.00 0.00 0.00 0.00 0.00 0.00 0.00 0.00 0.00 0.00 0.00 0.00 0.00 0.00 0.01
0.00 0.00 0.00 0.00 0.00 0.00 0.00 0.00 0.00 0.00 0.00 0.00 0.00 0.00 0.00 0.00 0.00 0.00 0.00 0.00 0.00 0.00 0.00 0.00 0.00 0.00 0.00 0.00 0.00 0.00 0.00 0.00 0.00 0.00 0.00 0.00 0.00 0.00 0.00 0.01 0.04 0.05 0.03 0.04
0.00 0.00 0.00 0.00 0.00 0.00 0.00 0.00 0.00 0.00 0.00 0.00 0.00 0.00 0.00 0.00 0.00 0.00 0.00 0.00 0.00 0.00 0.00 0.00 0.00 0.00 0.00 0.00 0.00 0.00 0.00 0.00 0.00 0.00 0.00 0.00 0.00 0.01 0.04 0.07 0.05 0.03 0.04 0.04
0.00 0.00 0.00 0.00 0.00 0.00 0.00 0.00 0.00 0.00 0.00 0.00 0.00 0.00 0.00 0.00 0.00 0.00 0.00 0.00 0.00 0.00 0.00 0.00 0.00 0.00 0.00 0.00 0.00 0.00 0.00 0.00 0.00 0.00 0.00 0.00 0.01 0.02 0.02 0.02 0.02 0.02 0.02 0.03
0.01 0.00 0.00 0.00 0.00 0.00 0.00 0.00 0.00 0.00 0.00 0.00 0.00 0.00 0.00 0.00 0.00 0.00 0.00 0.00 0.00 0.00 0.00 0.00 0.00 0.00 0.00 0.00 0.00 0.00 0.00 0.00 0.00 0.00 0.00 0.00 0.00 0.00 0.00 0.00 0.01 0.01 0.02 0.02
0.00 0.00 0.00 0.00 0.00 0.00 0.00 0.00 0.00 0.00 0.00 0.00 0.00 0.00 0.00 0.00 0.00 0.00 0.00 0.00 0.00 0.00 0.00 0.00 0.00 0.00 0.00 0.00 0.00 0.00 0.00 0.00 0.00 0.00 0.00 0.00 0.00 0.00 0.00 0.00 0.00 0.01 0.01 0.02
0.00 0.00 0.00 0.00 0.00 0.00 0.00 0.00 0.00 0.00 0.00 0.00 0.00 0.00 0.00 0.00 0.00 0.00 0.00 0.00 0.00 0.00 0.00 0.00 0.00 0.00 0.00 0.00 0.00 0.00 0.00 0.00 0.00 0.00 0.00 0.00 0.00 0.00 0.00 0.00 0.00 0.01 0.04 0.09
0.00 0.00 0.00 0.00 0.00 0.00 0.00 0.00 0.00 0.00 0.00 0.00 0.00 0.00 0.00 0.00 0.00 0.00 0.00 0.00 0.00 0.00 0.00 0.00 0.00 0.00 0.00 0.00 0.00 0.00 0.00 0.00 0.00 0.00 0.00 0.00 0.00 0.00 0.00 0.00 0.00 0.01 0.04 0.08
0.00 0.00 0.00 0.00 0.00 0.00 0.00 0.00 0.00 0.00 0.00 0.00 0.00 0.00 0.00 0.00 0.00 0.00 0.00 0.00 0.00 0.00 0.00 0.00 0.00 0.00 0.00 0.00 0.00 0.00 0.00 0.00 0.00 0.00 0.00 0.00 0.00 0.00 0.00 0.00 0.00 0.02 0.07 0.12
0.00 0.00 0.00 0.00 0.00 0.00 0.00 0.00 0.00 0.00 0.00 0.00 0.00 0.00 0.00 0.00 0.00 0.00 0.00 0.00 0.00 0.00 0.00 0.00 0.00 0.00 0.00 0.00 0.00 0.00 0.00 0.00 0.00 0.00 0.00 0.00 0.00 0.00 0.00 0.01 0.04 0.11 0.18 0.27
0.00 0.00 0.00 0.00 0.00 0.00 0.00 0.00 0.00 0.00 0.00 0.00 0.00 0.00 0.01 0.01 0.01 0.00 0.00 0.00 0.00 0.00 0.00 0.00 0.00 0.00 0.00 0.00 0.00 0.00 0.00 0.00 0.00 0.00 0.00 0.00 0.00 0.01 0.03 0.08 0.13 0.16 0.26 0.32
0.00 0.00 0.00 0.00 0.00 0.00 0.00 0.00 0.00 0.00 0.00 0.00 0.01 0.01 0.01 0.01 0.00 0.00 0.00 0.00 0.00 0.00 0.00 0.00 0.00 0.00 0.00 0.00 0.00 0.00 0.00 0.00 0.01 0.00 0.00 0.01 0.03 0.06 0.13 0.16 0.21 0.20 0.16 0.12
0.01 0.01 0.00 0.00 0.00 0.00 0.00 0.00 0.00 0.00 0.00 0.00 0.00 0.00 0.00 0.00 0.00 0.00 0.00 0.00 0.00 0.00 0.00 0.00 0.00 0.00 0.00 0.00 0.00 0.00 0.00 0.00 0.01 0.02 0.03 0.06 0.09 0.10 0.10 0.10 0.08 0.08 0.07 0.05
0.01 0.01 0.01 0.00 0.00 0.00 0.00 0.00 0.00 0.00 0.00 0.00 0.00 0.00 0.00 0.00 0.00 0.00 0.00 0.00 0.00 0.00 0.00 0.00 0.00 0.00 0.00 0.00 0.00 0.00 0.00 0.01 0.02 0.02 0.01 0.00 0.00 0.00 0.00 0.00 0.00 0.01 0.01 0.01
0.00 0.00 0.00 0.00 0.00 0.00 0.00 0.00 0.00 0.00 0.00 0.00 0.00 0.00 0.00 0.00 0.00 0.00 0.00 0.00 0.00 0.00 0.00 0.00 0.00 0.00 0.00 0.00 0.00 0.00 0.00 0.00 0.00 0.00 0.00 0.00 0.00 0.00 0.00 0.00 0.00 0.00 0.00 0.00
0.00 0.00 0.00 0.00 0.00 0.00 0.00 0.00 0.00 0.00 0.00 0.00 0.00 0.00 0.00 0.00 0.00 0.00 0.00 0.00 0.00 0.00 0.00 0.00 0.00 0.00 0.00 0.00 0.00 0.00 0.00 0.00 0.00 0.00 0.00 0.00 0.00 0.00 0.00 0.00 0.00 0.00 0.00 0.00
0.00 0.00 0.00 0.00 0.00 0.00 0.00 0.00 0.00 0.00 0.00 0.00 0.00 0.00 0.00 0.00 0.00 0.00 0.00 0.00 0.00 0.00 0.00 0.00 0.00 0.00 0.00 0.00 0.00 0.00 0.00 0.00 0.00 0.00 0.00 0.00 0.00 0.00 0.00 0.00 0.00 0.00 0.00 0.01
0.00 0.00 0.00 0.00 0.00 0.00 0.00 0.00 0.00 0.00 0.00 0.00 0.00 0.00 0.00 0.00 0.00 0.00 0.00 0.00 0.00 0.00 0.00 0.00 0.00 0.00 0.00 0.00 0.00 0.00 0.00 0.00 0.00 0.00 0.00 0.00 0.00 0.00 0.00 0.00 0.00 0.00 0.00 0.00
0.00 0.00 0.00 0.00 0.00 0.00 0.00 0.00 0.00 0.00 0.00 0.00 0.00 0.00 0.00 0.00 0.00 0.00 0.00 0.00 0.00 0.00 0.00 0.00 0.00 0.00 0.00 0.00 0.00 0.00 0.00 0.00 0.00 0.00 0.00 0.00 0.00 0.00 0.00 0.00 0.00 0.00 0.00 0.00
0.00 0.00 0.00 0.00 0.00 0.00 0.00 0.00 0.00 0.00 0.00 0.00 0.00 0.00 0.00 0.00 0.00 0.00 0.00 0.00 0.00 0.00 0.00 0.00 0.00 0.00 0.00 0.00 0.00 0.00 0.00 0.00 0.00 0.00 0.00 0.00 0.01 0.01 0.00 0.00 0.00 0.00 0.00 0.00
0.00 0.00 0.00 0.00 0.00 0.00 0.00 0.00 0.00 0.00 0.00 0.00 0.00 0.00 0.00 0.00 0.00 0.00 0.00 0.00 0.00 0.00 0.00 0.00 0.00 0.00 0.00 0.00 0.00 0.00 0.00 0.00 0.00 0.00 0.00 0.00 0.00 0.01 0.00 0.00 0.00 0.00 0.00 0.00
0.00 0.00 0.00 0.00 0.00 0.00 0.00 0.00 0.00 0.00 0.00 0.00 0.00 0.00 0.00 0.00 0.00 0.00 0.00 0.00 0.00 0.00 0.00 0.00 0.00 0.00 0.00 0.00 0.00 0.00 0.00 0.00 0.00 0.00 0.00 0.01 0.01 0.01 0.00 0.00 0.00 0.00 0.00 0.00
0.00 0.00 0.00 0.00 0.00 0.00 0.00 0.00 0.00 0.00 0.00 0.00 0.00 0.00 0.00 0.00 0.00 0.00 0.00 0.00 0.00 0.00 0.00 0.00 0.00 0.00 0.00 0.00 0.00 0.00 0.00 0.00 0.00 0.01 0.01 0.01 0.02 0.01 0.00 0.01 0.01 0.00 0.01 0.01
0.00 0.00 0.00 0.00 0.00 0.00 0.00 0.00 0.00 0.00 0.00 0.00 0.00 0.00 0.00 0.00 0.00 0.00 0.00 0.00 0.00 0.00 0.00 0.00 0.00 0.00 0.00 0.00 0.00 0.00 0.00 0.00 0.00 0.01 0.01 0.02 0.02 0.01 0.01 0.02 0.01 0.02 0.03 0.05
0.00 0.00 0.00 0.00 0.00 0.00 0.00 0.00 0.00 0.00 0.00 0.00 0.00 0.00 0.00 0.00 0.00 0.00 0.00 0.00 0.00 0.00 0.00 0.00 0.00 0.00 0.00 0.00 0.00 0.00 0.00 0.00 0.00 0.00 0.00 0.01 0.01 0.01 0.01 0.01 0.01 0.02 0.02 0.03
0.00 0.00 0.00 0.00 0.00 0.00 0.00 0.00 0.00 0.00 0.00 0.00 0.00 0.00 0.00 0.00 0.00 0.00 0.00 0.00 0.00 0.00 0.00 0.00 0.00 0.00 0.00 0.00 0.00 0.00 0.00 0.00 0.00 0.01 0.01 0.01 0.01 0.01 0.01 0.01 0.01 0.01 0.01 0.01
0.00 0.00 0.00 0.00 0.00 0.00 0.00 0.00 0.00 0.00 0.00 0.00 0.00 0.00 0.00 0.00 0.00 0.00 0.00 0.00 0.00 0.00 0.00 0.00 0.00 0.00 0.00 0.00 0.00 0.00 0.00 0.00 0.00 0.00 0.01 0.01 0.01 0.01 0.01 0.01 0.01 0.01 0.01 0.01
MSLP
1004.86 1004.71 1004.55 1004.10 1004.27 1004.96 1005.80 1005.60 1006.77 1006.46 1006.54 1006.02 1005.50 1005.43 1005.76 1006.19 1006.40 1006.60 1006.71 1006.53 1006.48 1006.47 1006.23 1005.58 1004.70 1004.00 1003.06 1002.18 1001.80 1002.00 1002.05 1002.29 1002.16 1002.45 1002.83 1002.94 1002.89 1002.68 1002.72 1003.12 1003.39 1003.95 1004.64 1005.04
1005.40 1005.06 1004.75 1004.43 1004.40 1004.82 1004.96 1005.69 1005.93 1005.87 1005.63 1005.23 1005.16 1005.67 1006.09 1006.62 1006.83 1007.30 1007.48 1007.60 1007.60 1007.33 1006.97 1006.38 1005.57 1005.02 1004.17 1003.27 1002.25 1001.81 1001.86 1002.28 1002.40 1002.37 1002.44 1002.50 1002.42 1002.53 1002.89 1003.22 1003.32 1003.61 1003.90 1004.32
1006.09 1005.59 1005.47 1005.22 1003.93 1004.43 1004.73 1004.78 1004.90 1005.35 1004.91 1005.04 1005.37 1005.93 1006.48 1007.03 1007.52 1008.13 1008.41 1008.38 1008.26 1007.99 1007.66 1007.05 1006.33 1005.88 1005.31 1004.44 1003.46 1002.80 1002.52 1002.43 1002.31 1002.23 1002.22 1002.25 1002.23 1002.34 1002.43 1002.38 1002.72 1002.95 1003.21 1003.72
1007.06 1006.73 1005.64 1003.26 1002.72 1002.97 1003.66 1003.97 1004.25 1004.37 1004.58 1004.78 1005.58 1006.50 1007.09 1007.71 1008.17 1008.68 1008.85 1008.66 1008.49 1008.39 1008.04 1007.51 1006.90 1006.28 1005.81 1004.97 1004.42 1003.84 1003.40 1003.18 1002.90 1002.62 1002.47 1002.41 1002.49 1002.49 1002.54 1002.67 1002.78 1002.83 1002.81 1003.20
1007.91 1007.39 1005.58 1003.98 1003.36 1003.31 1003.39 1003.66 1003.69 1004.35 1004.97 1005.74 1006.38 1007.19 1007.95 1008.24 1008.50 1008.87 1009.05 1008.96 1008.93 1008.82 1008.34 1007.83 1007.66 1007.01 1006.36 1005.59 1005.17 1004.86 1004.67 1004.44 1004.00 1003.63 1003.46 1003.24 1003.02 1002.94 1002.94 1002.98 1002.97 1002.93 1003.15 1003.53
1007.69 1007.44 1005.16 1003.59 1002.85 1002.71 1003.05 1003.65 1003.82 1004.28 1005.21 1005.94 1006.57 1007.57 1008.04 1008.29 1008.62 1008.94 1009.07 1009.29 1009.11 1008.95 1008.71 1008.15 1007.82 1007.44 1006.76 1006.40 1005.92 1005.77 1005.72 1005.44 1005.10 1004.65 1004.30 1004.05 1003.82 1003.73 1003.76 1003.72 1003.47 1003.38 1003.42 1003.78
1007.19 1006.54 1004.98 1003.63 1002.90 1002.86 1003.96 1004.02 1004.19 1004.83 1005.54 1005.92 1006.69 1007.35 1007.90 1008.31 1008.51 1008.63 1008.89 1008.75 1009.14 1009.24 1008.97 1008.87 1008.64 1008.27 1007.66 1007.25 1007.36 1006.98 1006.33 1005.94 1005.54 1005.20 1005.02 1004.73 1004.43 1004.19 1004.05 1004.01 1004.04 1004.19 1004.33 1004.38
1006.42 1006.35 1004.49 1003.36 1003.53 1003.62 1004.07 1004.82 1005.25 1005.72 1005.94 1006.46 1007.12 1007.56 1007.97 1008.30 1008.65 1008.70 1008.60 1008.56 1008.15 1009.79 1008.85 1009.21 1009.15 1008.80 1008.59 1008.51 1008.31 1007.55 1007.04 1006.66 1006.45 1006.08 1005.71 1005.37 1005.07 1004.88 1004.73 1004.64 1004.81 1004.98 1004.94 1005.01
1004.45 1004.03 1003.68 1003.73 1003.99 1004.05 1004.28 1004.91 1005.79 1006.09 1006.58 1006.90 1007.28 1007.89 1008.33 1008.46 1008.55 1009.25 1009.18 1008.78 1009.20 1009.79 1009.63 1009.89 1009.99 1009.94 1009.65 1009.35 1008.71 1008.08 1007.73 1007.58 1007.24 1006.85 1006.60 1006.27 1006.08 1006.05 1006.05 1005.87 1005.92 1006.15 1006.31 1006.63
1003.93 1003.78 1004.36 1004.69 1004.83 1005.03 1005.16 1005.45 1005.93 1006.20 1006.94 1007.21 1007.58 1008.05 1008.38 1008.78 1009.10 1009.60 1010.08 1009.65 1009.62 1010.00 1010.65 1010.92 1010.81 1010.88 1010.41 1009.71 1008.88 1008.63 1008.38 1008.12 1008.00 1008.03 1007.87 1007.55 1007.37 1007.37 1007.38 1007.31 1007.31 1007.33 1007.57 1007.95
1003.50 1004.34 1004.63 1005.57 1005.86 1006.15 1005.81 1005.86 1006.16 1006.82 1007.14 1007.60 1007.96 1008.18 1008.99 1009.10 1010.15 1010.44 1010.69 1010.40 1010.52 1010.93 1011.42 1011.81 1011.63 1011.24 1010.98 1010.49 1010.00 1009.35 1009.19 1009.15 1008.78 1008.82 1008.81 1008.70 1008.57 1008.72 1008.68 1008.69 1008.36 1008.22 1008.21 1008.12
1002.44 1002.85 1003.05 1004.23 1005.35 1005.84 1005.98 1006.33 1006.44 1006.81 1007.61 1007.80 1008.02 1008.44 1008.96 1009.88 1010.53 1010.96 1011.45 1011.54 1011.81 1011.94 1012.40 1012.42 1012.40 1012.21 1011.95 1011.36 1010.61 1010.18 1009.97 1009.88 1009.82 1009.74 1009.65 1009.61 1009.51 1009.22 1008.98 1008.87 1008.57 1008.33 1008.16 1008.18
1002.59 1002.81 1003.39 1004.59 1004.99 1005.74 1006.25 1006.44 1006.48 1007.08 1007.60 1008.37 1008.52 1008.93 1009.60 1010.85 1011.67 1011.90 1012.08 1012.09 1012.34 1012.74 1012.92 1013.02 1013.08 1012.88 1012.62 1012.12 1011.64 1011.32 1010.92 1010.43 1010.41 1010.51 1010.33 1010.12 1009.88 1009.74 1009.49 1009.17 1008.88 1008.54 1008.37 1008.18
1002.57 1003.47 1004.97 1005.60 1005.74 1006.06 1006.10 1006.67 1007.40 1007.98 1008.81 1009.31 1009.91 1010.47 1011.01 1011.61 1012.15 1012.50 1012.79 1012.94 1013.15 1013.24 1013.47 1013.61 1013.70 1013.88 1013.67 1013.01 1012.41 1011.94 1011.55 1011.43 1011.24 1011.21 1010.99 1010.68 1010.43 1010.29 1010.05 1009.81 1009.39 1008.91 1008.46 1008.23
1003.45 1003.38 1004.42 1005.07 1005.77 1006.32 1006.77 1007.53 1008.50 1009.26 1009.98 1010.78 1011.27 1011.39 1011.81 1012.26 1012.76 1013.31 1013.63 1013.50 1013.69 1013.95 1014.58 1014.64 1014.67 1014.62 1014.18 1013.57 1012.95 1012.63 1012.35 1012.13 1011.90 1011.68 1011.40 1011.13 1010.93 1010.53 1010.21 1009.95 1009.62 1009.07 1008.60 1008.27
1004.29 1004.93 1005.49 1006.07 1007.06 1007.60 1008.02 1008.88 1009.54 1010.49 1010.98 1011.48 1012.07 1012.50 1012.81 1013.10 1013.55 1014.10 1014.43 1014.38 1014.52 1014.98 1015.41 1015.43 1015.22 1015.07 1014.61 1014.19 1013.69 1013.31 1012.93 1012.57 1012.39 1012.13 1011.64 1011.43 1011.23 1010.92 1010.53 1010.23 1009.73 1009.45 1009.09 1008.68
1004.89 1006.04 1006.70 1007.61 1008.20 1008.82 1009.31 1009.90 1010.53 1011.33 1012.04 1012.49 1013.06 1013.31 1013.59 1014.06 1014.46 1014.86 1015.18 1015.42 1015.51 1015.67 1015.93 1015.90 1015.78 1015.58 1015.26 1014.87 1014.33 1013.66 1013.43 1012.96 1012.52 1012.04 1011.68 1011.64 1011.47 1011.38 1011.16 1010.79 1010.39 1010.02 1009.51 1009.04
1005.12 1005.92 1006.65 1007.68 1008.71 1009.56 1010.37 1011.08 1011.77 1012.47 1013.15 1013.74 1014.00 1014.09 1014.50 1014.84 1015.26 1015.66 1015.92 1016.14 1016.27 1016.26 1016.37 1016.32 1016.22 1016.06 1015.74 1015.34 1014.87 1014.20 1013.70 1013.38 1012.92 1012.40 1012.15 1011.79 1011.63 1011.57 1011.37 1011.09 1010.76 1010.38 1009.93 1009.32
1006.55 1007.12 1007.82 1008.52 1009.45 1010.40 1011.31 1012.17 1012.84 1013.53 1014.32 1014.79 1015.07 1015.39 1015.62 1015.76 1016.05 1016.47 1016.86 1016.95 1017.08 1017.07 1017.09 1016.99 1016.78 1016.35 1015.95 1015.60 1015.19 1014.61 1014.23 1013.85 1013.37 1012.89 1012.49 1012.08 1011.80 1011.65 1011.47 1011.26 1011.00 1010.65 1010.20 1009.68
1007.90 1008.42 1008.77 1009.41 1010.34 1011.10 1012.11 1013.15 1013.87 1014.67 1015.47 1015.84 1016.00 1016.08 1016.30 1016.59 1016.87 1017.17 1017.33 1017.73 1018.13 1018.40 1017.84 1017.46 1017.00 1016.54 1016.41 1016.08 1015.61 1015.06 1014.61 1014.26 1013.85 1013.38 1012.85 1012.38 1012.03 1011.81 1011.64 1011.44 1011.17 1010.73 1010.24 1009.72
1008.99 1009.63 1009.94 1010.40 1011.32 1012.21 1013.14 1014.03 1014.84 1015.56 1016.30 1016.73 1016.65 1017.10 1017.60 1017.94 1017.86 1017.82 1018.00 1018.42 1018.65 1018.49 1018.12 1017.89 1017.65 1017.59 1017.35 1016.88 1016.18 1015.69 1015.24 1014.78 1014.24 1013.74 1013.25 1012.85 1012.43 1011.92 1011.62 1011.69 1011.29 1010.69 1010.13 1009.67
1009.66 1010.11 1010.70 1011.32 1012.19 1013.28 1014.10 1014.73 1015.56 1016.33 1017.07 1017.64 1018.03 1018.36 1018.56 1018.98 1018.99 1019.07 1019.15 1019.24 1019.12 1019.10 1018.87 1018.80 1018.79 1018.62 1018.13 1017.48 1017.07 1016.64 1016.10 1015.56 1015.00 1014.36 1013.75 1013.32 1012.98 1012.50 1012.14 1011.84 1011.47 1011.07 1010.62 1010.01
1009.94 1010.59 1011.37 1012.18 1012.97 1013.91 1014.99 1016.06 1016.74 1017.14 1017.84 1018.57 1018.96 1019.20 1019.46 1019.63 1019.71 1019.66 1019.81 1020.00 1019.94 1019.95 1019.86 1019.85 1019.65 1019.23 1018.82 1018.47 1018.10 1017.68 1017.19 1016.68 1016.17 1015.65 1015.13 1014.65 1014.20 1013.77 1013.32 1012.87 1012.46 1012.01 1011.53 1011.04
1010.54 1011.32 1012.17 1012.99 1013.90 1014.94 1015.87 1016.85 1017.23 1018.06 1018.55 1019.19 1019.54 1019.55 1019.82 1020.52 1020.62 1020.64 1020.73 1020.86 1020.89 1020.85 1020.81 1020.71 1020.39 1020.02 1019.64 1019.33 1018.92 1018.50 1018.09 1017.71 1017.24 1016.76 1016.25 1015.76 1015.33 1014.84 1014.39 1013.98 1013.58 1013.17 1012.77 1012.40
1011.13 1011.99 1012.88 1013.77 1014.42 1015.32 1016.09 1016.97 1017.89 1018.56 1019.20 1019.95 1020.39 1020.71 1020.58 1020.81 1021.25 1021.92 1021.78 1021.70 1021.65 1021.59 1021.64 1021.42 1021.12 1020.79 1020.47 1020.14 1019.74 1019.34 1018.94 1018.52 1018.12 1017.68 1017.25 1016.83 1016.41 1015.97 1015.59 1015.20 1014.87 1014.53 1014.14 1013.85
1011.60 1012.51 1013.32 1013.89 1014.64 1015.66 1016.66 1017.45 1018.46 1019.28 1020.02 1020.80 1021.50 1021.77 1022.06 1022.08 1022.26 1022.33 1022.39 1022.46 1022.56 1022.59 1022.57 1022.33 1022.01 1021.67 1021.36 1021.05 1020.71 1020.34 1019.92 1019.52 1019.08 1018.72 1018.35 1017.94 1017.51 1017.08 1016.71 1016.36 1016.02 1015.69 1015.38 1015.11
1012.21 1012.89 1013.83 1014.84 1015.65 1016.33 1017.18 1017.83 1018.72 1019.80 1020.46 1021.17 1022.21 1022.73 1022.82 1022.85 1022.96 1023.16 1023.37 1023.53 1023.57 1023.50 1023.37 1023.16 1022.90 1022.66 1022.37 1022.03 1021.67 1021.36 1021.01 1020.62 1020.25 1019.83 1019.41 1019.01 1018.60 1018.27 1017.90 1017.56 1017.21 1016.88 1016.60 1016.32
Thickness
5644 5658 5667 5674 5674 5665 5664 5678 5649 5668 5655 5670 5678 5681 5680 5677 5675 5673 5670 5672 5672 5672 5673 5674 5679 5682 5685 5689 5690 5686 5685 5682 5683 5679 5674 5671 5669 5670 5667 5662 5657 5649 5641 5636
5630 5641 5649 5655 5659 5655 5654 5649 5652 5655 5654 5673 5676 5669 5669 5665 5663 5656 5652 5649 5648 5651 5654 5656 5660 5661 5666 5669 5675 5677 5675 5670 5668 5669 5669 5667 5665 5662 5656 5651 5647 5641 5634 5627
5609 5629 5626 5612 5641 5636 5647 5651 5654 5643 5664 5668 5665 5661 5658 5652 5642 5636 5631 5630 5629 5631 5634 5638 5641 5642 5643 5648 5653 5657 5659 5659 5659 5659 5658 5657 5655 5650 5646 5645 5638 5633 5628 5619
5605 5597 5584 5636 5658 5658 5650 5648 5651 5659 5659 5659 5654 5641 5634 5628 5623 5618 5616 5616 5615 5613 5616 5618 5620 5622 5624 5630 5634 5638 5641 5641 5642 5643 5643 5642 5638 5635 5631 5627 5623 5619 5616 5608
5578 5576 5601 5623 5631 5633 5637 5637 5649 5645 5644 5637 5632 5622 5614 5611 5608 5605 5601 5599 5596 5594 5598 5600 5600 5603 5609 5614 5616 5618 5618 5618 5620 5620 5621 5621 5621 5619 5615 5610 5605 5601 5595 5587
5550 5573 5595 5618 5633 5637 5639 5615 5640 5639 5630 5624 5618 5603 5599 5601 5596 5591 5586 5581 5581 5581 5582 5586 5587 5589 5594 5595 5600 5599 5596 5596 5597 5599 5600 5601 5599 5597 5592 5587 5584 5580 5574 5566
5544 5563 5577 5607 5624 5630 5601 5619 5628 5624 5616 5610 5605 5601 5594 5589 5585 5582 5576 5574 5568 5565 5566 5567 5568 5568 5573 5574 5572 5572 5577 5579 5579 5579 5578 5577 5575 5573 5570 5566 5559 5552 5545 5538
5553 5551 5573 5611 5617 5608 5610 5601 5601 5598 5597 5593 5588 5584 5580 5577 5571 5568 5567 5566 5566 5550 5555 5550 5551 5552 5552 5549 5549 5553 5555 5556 5555 5555 5555 5553 5550 5545 5540 5534 5526 5519 5512 5505
5578 5578 5594 5588 5597 5591 5595 5592 5584 5580 5577 5576 5572 5567 5562 5561 5559 5551 5551 5552 5546 5538 5536 5533 5529 5527 5528 5528 5532 5534 5533 5530 5529 5527 5524 5521 5517 5511 5503 5499 5493 5483 5474 5465
5581 5582 5569 5567 5568 5572 5574 5572 5569 5568 5562 5558 5555 5552 5550 5545 5541 5535 5529 5531 5530 5523 5514 5508 5508 5504 5505 5508 5513 5511 5509 5507 5502 5495 5490 5484 5479 5473 5466 5460 5453 5445 5434 5423
5565 5555 5557 5552 5552 5551 5555 5556 5555 5552 5548 5545 5542 5541 5535 5531 5522 5514 5509 5509 5506 5500 5494 5487 5487 5487 5485 5484 5483 5485 5482 5475 5472 5465 5456 5450 5440 5432 5424 5414 5411 5406 5399 5396
5572 5565 5572 5556 5544 5543 5543 5541 5541 5539 5534 5532 5530 5528 5524 5508 5499 5493 5487 5485 5481 5479 5472 5468 5464 5461 5458 5458 5459 5457 5452 5445 5436 5430 5422 5413 5404 5397 5390 5383 5380 5377 5377 5376
5548 5552 5548 5540 5538 5534 5532 5528 5530 5524 5520 5517 5510 5507 5499 5483 5473 5471 5470 5469 5464 5456 5451 5445 5441 5438 5434 5432 5428 5424 5419 5416 5407 5396 5389 5381 5375 5369 5366 5362 5361 5362 5362 5362
5539 5536 5525 5524 5525 5524 5525 5520 5514 5506 5494 5490 5483 5477 5472 5469 5463 5457 5451 5445 5440 5436 5430 5423 5416 5407 5403 5403 5399 5394 5388 5378 5371 5364 5358 5356 5354 5350 5347 5345 5345 5345 5348 5349
5523 5528 5523 5520 5516 5511 5509 5500 5490 5482 5475 5469 5465 5463 5458 5453 5444 5437 5431 5429 5422 5414 5402 5396 5388 5381 5376 5373 5369 5363 5357 5352 5349 5346 5344 5341 5338 5338 5337 5335 5334 5335 5335 5335
5504 5501 5498 5494 5488 5484 5482 5474 5468 5461 5458 5454 5447 5442 5438 5432 5424 5415 5408 5403 5396 5385 5374 5366 5360 5353 5349 5345 5343 5341 5340 5337 5333 5330 5330 5328 5324 5323 5324 5323 5323 5322 5322 5322
5491 5481 5475 5470 5467 5464 5462 5458 5453 5445 5438 5434 5428 5423 5418 5410 5401 5392 5383 5374 5366 5357 5348 5341 5334 5330 5327 5325 5324 5323 5318 5318 5316 5319 5316 5311 5309 5307 5306 5306 5305 5306 5308 5308
5477 5473 5468 5462 5454 5446 5440 5434 5428 5423 5416 5410 5405 5402 5393 5386 5376 5367 5357 5347 5337 5333 5326 5322 5317 5313 5311 5310 5308 5308 5308 5306 5305 5305 5302 5300 5295 5294 5292 5291 5292 5291 5292 5295
5456 5454 5450 5444 5434 5427 5420 5413 5407 5401 5394 5387 5381 5373 5366 5360 5352 5341 5330 5321 5317 5316 5310 5305 5302 5300 5298 5295 5293 5293 5290 5288 5287 5287 5286 5285 5283 5279 5276 5274 5275 5277 5280 5282
5430 5427 5425 5421 5415 5410 5402 5393 5387 5377 5368 5361 5355 5352 5346 5336 5330 5322 5316 5308 5300 5293 5293 5291 5289 5287 5281 5278 5276 5274 5272 5269 5267 5266 5267 5267 5265 5264 5263 5261 5260 5263 5268 5272
5407 5403 5403 5401 5395 5389 5381 5374 5364 5354 5344 5338 5339 5329 5319 5312 5311 5309 5305 5295 5287 5283 5280 5276 5273 5267 5262 5259 5258 5255 5252 5249 5249 5248 5247 5246 5246 5248 5248 5243 5243 5247 5257 5261
5391 5390 5386 5383 5378 5369 5363 5356 5347 5338 5326 5316 5312 5306 5303 5298 5289 5286 5280 5279 5274 5267 5264 5258 5251 5245 5242 5239 5236 5232 5229 5227 5226 5225 5225 5224 5223 5224 5226 5227 5229 5232 5235 5242
5380 5377 5373 5367 5362 5353 5339 5328 5319 5316 5308 5301 5297 5294 5291 5285 5280 5275 5270 5264 5258 5251 5245 5238 5231 5226 5220 5216 5210 5205 5200 5197 5194 5193 5191 5190 5190 5191 5193 5198 5202 5206 5210 5215
5366 5362 5355 5348 5338 5330 5321 5314 5311 5302 5296 5291 5283 5280 5281 5269 5264 5261 5255 5246 5239 5232 5226 5219 5211 5205 5198 5192 5185 5179 5174 5168 5164 5161 5160 5159 5159 5161 5163 5167 5172 5178 5184 5189
5350 5343 5337 5331 5329 5320 5314 5305 5297 5293 5288 5281 5276 5270 5268 5263 5252 5242 5237 5232 5225 5217 5208 5199 5192 5184 5176 5168 5161 5154 5148 5142 5137 5133 5131 5129 5129 5130 5133 5136 5141 5147 5154 5161
5339 5332 5328 5326 5320 5312 5303 5297 5289 5281 5275 5267 5260 5252 5248 5244 5239 5233 5225 5217 5208 5198 5188 5179 5171 5162 5154 5145 5137 5129 5123 5118 5115 5112 5109 5108 5108 5108 5110 5112 5116 5122 5128 5135
5328 5324 5318 5311 5305 5301 5295 5290 5283 5274 5267 5259 5249 5241 5238 5233 5227 5220 5209 5199 5189 5179 5170 5160 5151 5142 5132 5123 5116 5109 5103 5099 5096 5095 5094 5094 5093 5093 5094 5096 5099 5103 5108 5113